カタログに戻る

TITAN 3C TRANSTAGE DEB

LostHEO
NORAD 26528·DEBRIS·🇺🇸 United States

打ち上げ Dec 21, 1965 から Cape Canaveral Space Force Station

Loading…

次のパス (今後24時間)

TLE

古いSource: Space-Track

元期: Mar 8, 2026, 05:17 UTC

1 26528U 65108AP  26067.22045376 -.00000175  00000-0 -37199-2 0  9999
2 26528  27.5724 324.5090 6658673 235.8381 336.4465  2.68043131265738

AllMySatでTITAN 3C TRANSTAGE DEBをリアルタイム追跡

Download on the App Store